Date String (YYYY-MM-DD hh:mm:ss) UTC,Instrument flags,absolute air pressure of the measurement (hPa),sample flow rate (lpm),inlet stack bypass flow (lpm),air temperature of the measurement (°C),ambient temperature measured by the external sensor (°C),aerosol sample conditioner tube jacket temperature (°C),OPC LED temperature (°C),internal box temperature (°C),relative humidity of the measurement (%),span deviation,mass concentration of particles derived from Lorenz-Mie calculation of OPC scattering (μg/m³),mass concentration of particles derived from Lorenz-Mie calculation of OPC scattering (μg/m³),mass concentration of particles derived from Lorenz-Mie calculation of OPC scattering (μg/m³)
DateTimeUTC,F1_M11,P_M11,Q1_M11,Q2_M11,T1_M11,T2_M11,T3_M11,T4_M11,T5_M11,U1_M11,ZSPAN_M11,X2_M11,X0_M11,X1_M11
2023-07-25 14:00:00,SystemResetWarning,0835.5,5.00,000.00,029.4,026.3,000.0,037.7,030.7,23.8,0000.0,0005.60,0013.69,0004.66
2023-07-25 14:01:00,SystemResetWarning,0835.5,5.00,000.00,029.3,026.6,000.0,037.8,030.8,23.0,0000.0,0005.61,0014.16,0004.66
2023-07-25 14:02:00,SystemResetWarning,0835.5,4.99,000.00,029.3,027.0,000.0,037.8,030.8,27.2,0000.0,0005.63,0014.33,0004.67
2023-07-25 14:03:00,SystemResetWarning,0835.6,4.99,000.00,029.3,027.3,000.0,037.8,030.9,28.1,0000.0,0005.62,0014.98,0004.66
2023-07-25 14:04:00,SystemResetWarning,0835.6,5.00,000.00,029.4,027.5,000.0,037.8,031.0,29.2,0000.0,0005.60,0015.52,0004.65
2023-07-25 14:05:00,SystemResetWarning,0835.6,5.00,000.00,029.4,027.7,000.0,037.8,031.0,30.6,0000.0,0005.62,0015.31,0004.66
2023-07-25 14:06:00,SystemResetWarning,0835.6,5.01,000.00,029.4,027.9,000.0,037.9,031.1,27.2,0000.0,0005.58,0014.53,0004.66
2023-07-25 14:07:00,SystemResetWarning,0835.6,5.00,000.00,029.5,028.1,000.0,037.9,031.1,27.7,0000.0,0005.60,0014.92,0004.68
2023-07-25 14:08:00,SystemResetWarning,0835.6,4.99,000.00,029.5,028.2,000.0,037.9,031.2,25.0,0000.0,0005.63,0014.74,0004.69
2023-07-25 14:09:00,SystemResetWarning,0835.6,4.99,000.00,029.5,027.7,000.0,037.8,031.2,21.5,0000.0,0005.62,0014.68,0004.69
2023-07-25 14:10:00,SystemResetWarning,0835.6,5.00,000.00,029.5,026.2,000.0,037.7,031.0,22.2,0000.0,0005.64,0013.75,0004.70
2023-07-25 14:11:00,SystemResetWarning,0835.6,5.01,000.00,029.4,026.0,000.0,037.7,030.9,23.3,0000.0,0005.62,0012.36,0004.69
2023-07-25 14:12:00,SystemResetWarning,0835.6,5.01,000.00,029.4,026.2,000.0,037.7,030.8,23.0,0000.0,0005.56,0011.96,0004.65
2023-07-25 14:13:00,SystemResetWarning,0835.7,4.99,000.00,029.3,026.5,000.0,037.8,030.8,22.6,0000.0,0005.50,0011.93,0004.61
2023-07-25 14:14:00,SystemResetWarning,0835.6,5.01,000.00,029.3,026.9,000.0,037.8,030.8,21.9,0000.0,0005.46,0011.72,0004.58
2023-07-25 14:15:00,SystemResetWarning,0835.6,4.99,000.00,029.3,027.2,000.0,037.8,030.9,22.1,0000.0,0005.50,0012.39,0004.58
2023-07-25 14:16:00,SystemResetWarning,0835.7,5.00,000.00,029.4,027.4,000.0,037.8,030.9,22.4,0000.0,0005.47,0012.48,0004.54
2023-07-25 14:17:00,SystemResetWarning,0835.7,5.00,000.00,029.4,027.7,000.0,037.8,031.0,22.7,0000.0,0005.44,0012.44,0004.51
2023-07-25 14:18:00,SystemResetWarning,0835.8,5.00,000.00,029.4,027.9,000.0,037.8,031.1,23.0,0000.0,0005.42,0012.27,0004.50
2023-07-25 14:19:00,SystemResetWarning,0835.6,5.01,000.00,029.4,028.0,000.0,037.8,031.1,23.3,0000.0,0005.36,0012.86,0004.49
2023-07-25 14:20:00,SystemResetWarning,0835.6,5.01,000.00,029.5,028.2,000.0,037.9,031.1,23.1,0000.0,0005.40,0013.12,0004.49
2023-07-25 14:21:00,SystemResetWarning,0835.6,5.00,000.00,029.5,028.0,000.0,037.9,031.2,23.5,0000.0,0005.42,0013.17,0004.49
2023-07-25 14:22:00,SystemResetWarning,0835.6,4.99,000.00,029.5,026.5,000.0,037.7,031.0,24.0,0000.0,0005.41,0013.17,0004.48
2023-07-25 14:23:00,SystemResetWarning,0835.6,5.01,000.00,029.4,025.9,000.0,037.7,030.9,23.2,0000.0,0005.41,0013.39,0004.49
2023-07-25 14:24:00,SystemResetWarning,0835.5,5.01,000.00,029.4,026.1,000.0,037.7,030.7,22.6,0000.0,0005.41,0013.60,0004.51
2023-07-25 14:25:00,SystemResetWarning,0835.4,5.00,000.00,029.3,026.4,000.0,037.7,030.7,22.1,0000.0,0005.41,0013.69,0004.48
2023-07-25 14:26:00,SystemResetWarning,0835.6,5.00,000.00,029.3,026.8,000.0,037.8,030.8,22.4,0000.0,0005.35,0012.41,0004.44
2023-07-25 14:27:00,SystemResetWarning,0835.5,5.00,000.00,029.3,027.1,000.0,037.8,030.9,23.4,0000.0,0005.34,0012.42,0004.44
2023-07-25 14:28:00,SystemResetWarning,0835.5,5.00,000.00,029.3,027.4,000.0,037.8,030.9,23.4,0000.0,0005.39,0013.20,0004.46
2023-07-25 14:29:00,SystemResetWarning,0835.5,5.00,000.00,029.4,027.6,000.0,037.8,031.0,23.3,0000.0,0005.36,0013.07,0004.44
2023-07-25 14:30:00,SystemResetWarning,0835.5,5.00,000.00,029.4,027.8,000.0,037.8,031.0,24.0,0000.0,0005.33,0012.18,0004.38
2023-07-25 14:31:00,SystemResetWarning,0835.5,4.99,000.00,029.4,028.0,000.0,037.8,031.1,23.8,0000.0,0005.23,0011.68,0004.34
2023-07-25 14:32:00,SystemResetWarning,0835.5,5.00,000.00,029.5,028.1,000.0,037.9,031.1,23.0,0000.0,0005.13,0011.75,0004.28
2023-07-25 14:33:00,SystemResetWarning,0835.5,4.99,000.00,029.5,027.6,000.0,037.8,031.1,22.4,0000.0,0005.15,0011.75,0004.26
2023-07-25 14:34:00,SystemResetWarning,0835.4,5.01,000.00,029.5,026.2,000.0,037.7,030.9,22.2,0000.0,0005.12,0011.51,0004.23
2023-07-25 14:35:00,SystemResetWarning,0835.4,5.00,000.00,029.4,025.9,000.0,037.6,030.8,22.6,0000.0,0005.09,0011.36,0004.19
2023-07-25 14:36:00,SystemResetWarning,0835.3,5.01,000.00,029.3,026.1,000.0,037.7,030.7,22.0,0000.0,0005.07,0011.33,0004.20
2023-07-25 14:37:00,SystemResetWarning,0835.3,5.00,000.00,029.3,026.5,000.0,037.7,030.7,22.5,0000.0,0005.09,0011.28,0004.20
2023-07-25 14:38:00,SystemResetWarning,0835.3,5.00,000.00,029.3,026.8,000.0,037.7,030.8,22.5,0000.0,0005.01,0010.95,0004.15
2023-07-25 14:39:00,SystemResetWarning,0835.3,4.99,000.00,029.3,027.1,000.0,037.7,030.8,22.9,0000.0,0004.93,0010.09,0004.09
2023-07-25 14:40:00,SystemResetWarning,0835.3,5.00,000.00,029.3,027.4,000.0,037.8,030.9,23.0,0000.0,0004.88,0010.28,0004.04
2023-07-25 14:41:00,SystemResetWarning,0835.3,5.01,000.00,029.3,027.6,000.0,037.8,030.9,22.7,0000.0,0004.84,0010.40,0004.02
2023-07-25 14:42:00,SystemResetWarning,0835.3,5.00,000.00,029.4,027.8,000.0,037.8,031.0,22.4,0000.0,0004.79,0010.53,0003.97
2023-07-25 14:43:00,SystemResetWarning,0835.4,5.00,000.00,029.4,028.0,000.0,037.8,031.1,22.5,0000.0,0004.77,0010.80,0003.95
2023-07-25 14:44:00,SystemResetWarning,0835.4,4.99,000.00,029.4,028.1,000.0,037.8,031.1,22.6,0000.0,0004.74,0011.92,0003.90
2023-07-25 14:45:00,SystemResetWarning,0835.3,4.98,000.00,029.5,027.2,000.0,037.7,031.0,22.9,0000.0,0004.73,0012.08,0003.85
2023-07-25 14:46:00,SystemResetWarning,0835.3,5.01,000.00,029.4,025.4,000.0,037.6,030.7,22.3,0000.0,0004.73,0012.38,0003.83
2023-07-25 14:47:00,SystemResetWarning,0835.3,5.01,000.00,029.3,024.8,000.0,037.5,030.5,22.8,0000.0,0004.73,0012.04,0003.80
2023-07-25 14:48:00,SystemResetWarning,0835.2,5.01,000.00,029.2,025.1,000.0,037.5,030.4,22.8,0000.0,0004.69,0011.99,0003.78
2023-07-25 14:49:00,SystemResetWarning,0835.2,5.00,000.00,029.1,025.6,000.0,037.6,030.4,22.6,0000.0,0004.69,0012.15,0003.77
2023-07-25 14:50:00,SystemResetWarning,0835.2,5.00,000.00,029.1,026.0,000.0,037.6,030.5,22.5,0000.0,0004.65,0012.30,0003.76
2023-07-25 14:51:00,SystemResetWarning,0835.2,5.00,000.00,029.1,026.4,000.0,037.6,030.5,23.2,0000.0,0004.64,0012.28,0003.76
2023-07-25 14:52:00,SystemResetWarning,0835.3,5.00,000.00,029.1,026.8,000.0,037.6,030.6,23.1,0000.0,0004.66,0013.09,0003.75
2023-07-25 14:53:00,SystemResetWarning,0835.2,4.99,000.00,029.1,027.1,000.0,037.6,030.7,23.3,0000.0,0004.65,0012.88,0003.76
2023-07-25 14:54:00,SystemResetWarning,0835.2,5.00,000.00,029.1,027.4,000.0,037.6,030.7,22.9,0000.0,0004.65,0012.34,0003.76
2023-07-25 14:55:00,SystemResetWarning,0835.2,5.00,000.00,029.2,027.6,000.0,037.6,030.8,23.0,0000.0,0004.66,0011.72,0003.77
2023-07-25 14:56:00,SystemResetWarning,0835.2,5.00,000.00,029.2,027.8,000.0,037.6,030.9,23.1,0000.0,0004.62,0011.89,0003.77
2023-07-25 14:57:00,SystemResetWarning,0835.3,5.01,000.00,029.2,027.9,000.0,037.6,030.9,23.1,0000.0,0004.62,0011.72,0003.77
2023-07-25 14:58:00,SystemResetWarning,0835.3,5.00,000.00,029.3,028.1,000.0,037.7,031.0,22.6,0000.0,0004.61,0011.71,0003.75
2023-07-25 14:59:00,SystemResetWarning,0835.3,5.01,000.00,029.3,028.2,000.0,037.7,031.0,22.3,0000.0,0004.62,0011.76,0003.74
